Location: D�derode
(51.8092°N, 10.1065°E)
Time: 06:41:04
(UTC+00:00)

SMAP - Pass Details

Date: 01 December 2020
Orbit: 681 x 683 km, 98.1° (Epoch: 22 January)

Event Time Altitude Azimuth Distance (km) Brightness Sun altitude
Rises 17:01:05 0° 179° (S) 3,035 6.6 -15.9°
Reaches altitude 10° 17:03:23 10° 185° (S) 2,125 5.8 -16.3°
Maximum altitude 17:07:54 49° 261° (W) 884 4.1 -16.9°
Drops below altitude 10° 17:12:26 10° 336° (NNW) 2,141 5.7 -17.6°
Sets 17:14:46 0° 342° (NNW) 3,062 6.5 -18.0°
